Regional Weather Roundup
Issued by NWS

Home | Current Version | Previous Version | Graphics & Text | Print | Product List | Glossary On
Versions: 1 2 3 4 5 6 7 8 9 10 11 12 13 14 15 16 17 18 19 20 21 22 23 24 25 26 27 28 29 30 31 32 33 34 35 36 37 38 39 40 41 42 43 44 45 46 47 48 49 50
000
ASUS43 KLMK 251202
RWRKY
KENTUCKY REGIONAL WEATHER ROUNDUP
NATIONAL WEATHER SERVICE LOUISVILLE KY
800 AM EDT FRI JUL 25 2014

NOTE "FAIR" INDICATES FEW OR NO CLOUDS BELOW 12,000 FEET
WITH NO SIGNIFICANT WEATHER AND/OR OBSTRUCTIONS TO VISIBILITY.

KYZ001>023-026-027-061>063-070>075-251300-
WESTERN AND SOUTH CENTRAL KENTUCKY

CITY           SKY/WX    TMP DP  RH WIND       PRES   REMARKS
PADUCAH        MOSUNNY   62  59  90 CALM      30.06R
HENDERSON      SUNNY     59  55  88 CALM      30.07R
OWENSBORO      SUNNY     60  55  83 CALM      30.08R
HOPKINSVILLE   SUNNY     60  59  98 E3        30.06S
BOWLING GREEN  SUNNY     60  56  86 CALM      30.08S
GLASGOW        SUNNY     58  56  94 CALM      30.08S
$$

KYZ024-025-028>034-038-045-046-053-251300-
NORTH CENTRAL KENTUCKY

CITY           SKY/WX    TMP DP  RH WIND       PRES   REMARKS
LOUISVILLE/SDF MOSUNNY   65  57  75 NE5       30.10R
LOUISVILLE/LOU SUNNY     63  56  78 N3        30.11R
FORT KNOX      SUNNY     60  57  87 NE5       30.08S
$$

KYZ035>037-039>044-047>052-055>060-089>105-251300-
NORTHEAST KENTUCKY

CITY           SKY/WX    TMP DP  RH WIND       PRES   REMARKS
LEXINGTON      SUNNY     62  57  83 CALM      30.12R
COVINGTON      MOSUNNY   62  55  77 CALM      30.12R
FRANKFORT      SUNNY     58  54  86 CALM      30.10R
$$

KYZ054-064>069-076>088-106>120-251300-
SOUTHEAST KENTUCKY

CITY           SKY/WX    TMP DP  RH WIND       PRES   REMARKS
JACKSON        FOG       60  59  96 CALM      30.11R VSB<1/4
LONDON         CLOUDY    61  59  93 SE5       30.11R FOG
SOMERSET       FOG       59  59 100 CALM      30.10F VSB<1/4
MIDDLESBORO    CLOUDY    62  59  91 NW3       30.11R
MONTICELLO     FOG       61  61 100 CALM      30.11R VSB<1/4
$$




USA.gov is the U.S. government's official web portal to all federal, state and local government web resources and services.